| time (UTC) | temp C | wind direction | speed KPH | gust KPH | rain 1hr cm | rain 24hr cm | rain mn cm | humidity % | barometer mb |
| 20260503223024 | 20 | 210 | 6.4 | 14.5 | 0.00 | 0.00 | 0.00 | 57 | 1017.5 |
| 20260503221527 | 20 | 202 | 6.4 | 12.9 | 0.00 | 0.00 | 0.00 | 54 | 1017.5 |
| 20260503220026 | 21 | 245 | 4.8 | 12.9 | 0.00 | 0.00 | 0.00 | 49 | 1017.3 |
| 20260503214518 | 21 | 321 | 6.4 | 16.1 | 0.00 | 0.00 | 0.00 | 44 | 1017.1 |
| 20260503213024 | 21 | 292 | 4.8 | 14.5 | 0.00 | 0.00 | 0.00 | 44 | 1017.4 |
| 20260503211525 | 21 | 214 | 3.2 | 9.7 | 0.00 | 0.00 | 0.00 | 46 | 1017.2 |
| 20260503210025 | 20 | 258 | 0.0 | 8.0 | 0.00 | 0.00 | 0.00 | 47 | 1017.5 |
| 20260503204530 | 20 | 302 | 1.6 | 14.5 | 0.00 | 0.00 | 0.00 | 45 | 1017.5 |
| 20260503203020 | 20 | 263 | 8.0 | 20.9 | 0.00 | 0.00 | 0.00 | 45 | 1017.6 |
| 20260503201503 | 20 | 270 | 4.8 | 16.1 | 0.00 | 0.00 | 0.00 | 45 | 1017.9 |
| 20260503200009 | 20 | 275 | 3.2 | 14.5 | 0.00 | 0.00 | 0.00 | 47 | 1017.9 |
| 20260503194514 | 20 | 233 | 1.6 | 8.0 | 0.00 | 0.00 | 0.00 | 44 | 1018.3 |
| 20260503193006 | 20 | 295 | 6.4 | 16.1 | 0.00 | 0.03 | 0.00 | 46 | 1018.6 |
| 20260503191503 | 20 | 226 | 1.6 | 17.7 | 0.00 | 0.05 | 0.00 | 46 | 1018.8 |
| 20260503190008 | 20 | 5 | 1.6 | 17.7 | 0.00 | 0.08 | 0.00 | 47 | 1019.2 |
| 20260503184520 | 19 | 309 | 1.6 | 6.4 | 0.00 | 0.08 | 0.00 | 50 | 1019.3 |
| 20260503183014 | 19 | 302 | 4.8 | 14.5 | 0.00 | 0.13 | 0.00 | 49 | 1019.6 |
| 20260503181505 | 18 | 28 | 3.2 | 9.7 | 0.00 | 0.18 | 0.00 | 50 | 1019.7 |
| 20260503180009 | 18 | 244 | 0.0 | 11.3 | 0.00 | 0.18 | 0.00 | 49 | 1019.9 |
| 20260503174507 | 18 | 329 | 11.3 | 19.3 | 0.00 | 0.18 | 0.00 | 49 | 1019.9 |
| 20260503173022 | 18 | 98 | 1.6 | 14.5 | 0.00 | 0.18 | 0.00 | 49 | 1020.0 |
| 20260503171522 | 18 | 309 | 1.6 | 12.9 | 0.00 | 0.18 | 0.00 | 49 | 1020.3 |
| 20260503081514 | 8 | 304 | 0.0 | 0.0 | 0.00 | 1.57 | 0.00 | 80 | 1017.4 |
| 20260503071512 | 9 | 304 | 0.0 | 0.0 | 0.00 | 1.70 | 0.00 | 80 | 1017.1 |
| 20260503054516 | 10 | 340 | 3.2 | 4.8 | 0.00 | 1.83 | 0.00 | 79 | 1017.0 |
| 20260503053024 | 10 | 340 | 1.6 | 4.8 | 0.00 | 1.85 | 0.00 | 79 | 1017.0 |
| 20260503051528 | 10 | 341 | 1.6 | 4.8 | 0.00 | 1.85 | 0.00 | 79 | 1016.7 |
| 20260503050014 | 10 | 341 | 1.6 | 4.8 | 0.00 | 1.85 | 0.00 | 79 | 1016.6 |
| 20260503044529 | 10 | 341 | 0.0 | 4.8 | 0.00 | 1.85 | 0.00 | 79 | 1016.4 |
| 20260503043020 | 11 | 341 | 1.6 | 4.8 | 0.00 | 1.85 | 0.00 | 79 | 1016.2 |
| 20260503041524 | 11 | 12 | 1.6 | 4.8 | 0.00 | 1.85 | 0.00 | 79 | 1016.2 |
| 20260503040029 | 11 | 339 | 0.0 | 4.8 | 0.00 | 1.85 | 0.00 | 79 | 1016.1 |
| 20260503034515 | 11 | 329 | 1.6 | 4.8 | 0.00 | 1.85 | 1.85 | 79 | 1016.0 |
| 20260503033017 | 11 | 327 | 1.6 | 4.8 | 0.00 | 1.85 | 1.85 | 79 | 1015.7 |
| 20260503031521 | 11 | 327 | 0.0 | 3.2 | 0.00 | 1.85 | 1.85 | 79 | 1015.5 |
| 20260503030024 | 11 | 337 | 1.6 | 6.4 | 0.00 | 1.85 | 1.85 | 79 | 1015.4 |
| 20260503024528 | 11 | 350 | 1.6 | 4.8 | 0.00 | 1.85 | 1.85 | 80 | 1015.0 |
| 20260503023027 | 11 | 350 | 0.0 | 3.2 | 0.00 | 1.85 | 1.85 | 80 | 1014.8 |
| 20260503021528 | 12 | 350 | 3.2 | 9.7 | 0.00 | 1.85 | 1.85 | 80 | 1014.7 |
| 20260503020029 | 12 | 352 | 3.2 | 8.0 | 0.00 | 1.88 | 1.85 | 80 | 1014.5 |
| 20260503014526 | 12 | 343 | 4.8 | 9.7 | 0.00 | 1.88 | 1.85 | 80 | 1014.5 |
| 20260503013036 | 12 | 335 | 3.2 | 6.4 | 0.00 | 1.88 | 1.85 | 80 | 1014.1 |
| 20260503011533 | 12 | 9 | 0.0 | 6.4 | 0.00 | 1.88 | 1.85 | 80 | 1013.8 |
| 20260503010028 | 12 | 18 | 0.0 | 8.0 | 0.00 | 1.88 | 1.85 | 80 | 1013.8 |
| 20260503004532 | 12 | 360 | 4.8 | 8.0 | 0.00 | 1.88 | 1.85 | 80 | 1014.1 |
| 20260503003030 | 12 | 9 | 4.8 | 14.5 | 0.00 | 1.88 | 1.85 | 80 | 1013.7 |
| 20260503001528 | 12 | 352 | 4.8 | 9.7 | 0.00 | 1.88 | 1.85 | 79 | 1013.3 |
| 20260503000028 | 12 | 14 | 3.2 | 6.4 | 0.00 | 1.88 | 1.85 | 79 | 1013.1 |
| 20260502234527 | 12 | 5 | 3.2 | 8.0 | 0.00 | 1.88 | 1.85 | 79 | 1013.0 |
| 20260502233028 | 12 | 346 | 4.8 | 12.9 | 0.00 | 1.88 | 1.85 | 79 | 1012.9 |
| 20260502231527 | 12 | 340 | 4.8 | 16.1 | 0.00 | 1.88 | 1.85 | 79 | 1012.7 |
| 20260502230022 | 12 | 30 | 3.2 | 16.1 | 0.00 | 1.88 | 1.85 | 80 | 1012.2 |
| 20260502224520 | 12 | 350 | 8.0 | 17.7 | 0.00 | 1.88 | 1.85 | 80 | 1012.8 |